Dyersburg, TN

8:39 PM CST on December 06, 2019 (GMT -0600)
Dyersburg Municipal

Weather History for KDYR - October, 2019

Change the Weather History Date:

Wednesday, October 23, 2019

  Actual Average Record
Temperature  
Mean Temperature 54 °F -  
Max Temperature 71 °F 68 °F 84 °F (2000)
Min Temperature 39 °F 47 °F 33 °F (1997)
Degree Days  
Heating Degree Days 10    
Growing Degree Days 4 (Base 50)    
Moisture  
Dew Point 40 °F    
Average Humidity 63    
Maximum Humidity 97    
Minimum Humidity 31    
Precipitation  
Precipitation 0.00 in - - ()
Sea Level Pressure  
Sea Level Pressure 30.16 in    
Wind  
Wind Speed 3 mph ()    
Max Wind Speed 14 mph    
Max Gust Speed 21 mph    
Visibility 10.0 miles    
Events      
Averages and records for this station are not official NWS values.
T = Trace of Precipitation, MM = Missing Value Source: Averaged Metar Reports

Daily Weather History Graph

Daily Weather History Graph

Search for Another Location

Airport or City:

Astronomy

Oct. 23, 2019 Rise Set
Actual Time 7:11 AM CDT 6:11 PM CDT
Civil Twilight 6:45 AM CDT 6:38 PM CDT
Nautical Twilight 6:15 AM CDT 7:07 PM CDT
Astronomical Twilight 5:45 AM CDT 7:37 PM CDT
Moon 1:43 AM CDT (10/23) 3:50 PM CDT (10/23)
Length of Visible Light 11h 52m
Length of Day
11h 00m
Waning Crescent, 26% of the Moon is Illuminated
Oct 23
Waning Crescent
Oct 27
New
Nov 4
First Quarter
Nov 12
Full
Nov 19
Last Quarter

Hourly Weather History & Observations

Time (CDT) Temp. Windchill Dew Point Humidity Pressure Visibility Wind Dir Wind Speed Gust Speed Precip Events Conditions
12:56 AM 46.0 °F - 43.0 °F 89% 30.12 in 10.0 mi Calm Calm - N/A   Clear
1:56 AM 43.0 °F - 42.1 °F 97% 30.13 in 10.0 mi Calm Calm - N/A   Clear
2:56 AM 41.0 °F - 39.9 °F 96% 30.13 in 10.0 mi Calm Calm - N/A   Clear
3:56 AM 42.1 °F - 41.0 °F 96% 30.13 in 10.0 mi Calm Calm - N/A   Clear
4:56 AM 41.0 °F - 39.9 °F 96% 30.16 in 10.0 mi Calm Calm - N/A   Clear
5:56 AM 39.0 °F - 37.9 °F 96% 30.16 in 10.0 mi Calm Calm - N/A   Clear
6:56 AM 39.0 °F - 37.9 °F 96% 30.17 in 10.0 mi Calm Calm - N/A   Clear
7:56 AM 44.1 °F 41.5 °F 41.0 °F 89% 30.17 in 10.0 mi SSE 4.6 mph - N/A   Clear
8:56 AM 50.0 °F - 43.0 °F 77% 30.20 in 10.0 mi South 4.6 mph - N/A   Clear
9:56 AM 57.0 °F - 43.0 °F 59% 30.20 in 10.0 mi South 4.6 mph - N/A   Clear
10:56 AM 63.0 °F - 42.1 °F 46% 30.21 in 10.0 mi South 6.9 mph - N/A   Clear
11:56 AM 66.9 °F - 37.9 °F 34% 30.21 in 10.0 mi Variable 6.9 mph - N/A   Clear
12:56 PM 69.1 °F - 37.0 °F 31% 30.18 in 10.0 mi SSW 13.8 mph 20.7 mph N/A   Clear
1:56 PM 69.1 °F - 37.0 °F 31% 30.16 in 10.0 mi SSW 11.5 mph 16.1 mph N/A   Clear
2:56 PM 70.0 °F - 37.9 °F 31% 30.14 in 10.0 mi SSW 6.9 mph - N/A   Clear
3:56 PM 70.0 °F - 37.9 °F 31% 30.14 in 10.0 mi SSW 8.1 mph 18.4 mph N/A   Clear
4:56 PM 69.1 °F - 37.9 °F 32% 30.14 in 10.0 mi South 6.9 mph - N/A   Clear
5:56 PM 66.0 °F - 39.0 °F 37% 30.14 in 10.0 mi South 3.5 mph - N/A   Clear
7:56 PM 60.1 °F - 41.0 °F 49% 30.16 in 10.0 mi SSE 5.8 mph - N/A   Clear
8:56 PM 57.9 °F - 41.0 °F 53% 30.16 in 10.0 mi SSE 6.9 mph - N/A   Clear
9:56 PM 55.9 °F - 42.1 °F 60% 30.18 in 10.0 mi SSE 4.6 mph - N/A   Clear
10:56 PM 55.0 °F - 42.1 °F 62% 30.19 in 10.0 mi South 4.6 mph - N/A   Clear
11:56 PM 53.1 °F - 42.1 °F 66% 30.19 in 10.0 mi South 4.6 mph - N/A   Clear